Weather History for Goldsboro, NC

Change the Weather History Date:

Thursday, March 28, 2013

  Actual Average (KGSB) Record (KGSB)
Temperature  
Mean Temperature 44 °F -  
Max Temperature 57 °F 67 °F 86 °F (2007)
Min Temperature 32 °F 46 °F 28 °F (2001)
Degree Days  
Heating Degree Days 20    
Moisture  
Dew Point 25 °F    
Average Humidity 48    
Maximum Humidity 75    
Minimum Humidity 28    
Precipitation  
Precipitation 0.00 in - - ()
Sea Level Pressure  
Sea Level Pressure 30.20 in    
Wind  
Wind Speed 4 mph (NW)    
Max Wind Speed 14 mph    
Max Gust Speed 21 mph    
Visibility 10 miles    
Events      
Averages and records for this station are not official NWS values.
T = Trace of Precipitation, MM = Missing Value Source: NWS Daily Summary

Daily Weather History Graph

Daily Weather History Graph

Search for Another Location

Airport:

Trip Planner

Search our weather history database for the weather conditions in past years. The results will help you decide how hot, cold, wet, or windy it might be!

Date:

Astronomy

Mar. 28, 2013 Rise Set
Actual Time 7:03 AM EDT 7:30 PM EDT
Civil Twilight 6:38 AM EDT 7:55 PM EDT
Nautical Twilight 6:08 AM EDT 8:25 PM EDT
Astronomical Twilight 5:37 AM EDT 8:56 PM EDT
Moon 9:14 PM EDT (3/28) 7:34 AM EDT (3/28)
Length of Visible Light 13h 17m
Length of Day
12h 26m
Full, 98% of the Moon is Illuminated
Mar 28
Full
Apr 3
Last Quarter
Apr 10
New
Apr 18
First Quarter
Apr 25
Full

Hourly Weather History & Observations

Time (EDT) Temp. Windchill Dew Point Humidity Pressure Visibility Wind Dir Wind Speed Gust Speed Precip Events Conditions
12:15 AM 35.4 °F - 24.4 °F 64% 30.22 in 10.0 mi Calm Calm - N/A   Clear
12:35 AM 34.7 °F - 24.8 °F 67% 30.21 in 10.0 mi Calm Calm - N/A   Clear
12:55 AM 36.3 °F 33.7 °F 23.5 °F 60% 30.21 in 10.0 mi WNW 3.5 mph - N/A   Clear
1:15 AM 37.9 °F 35.5 °F 23.0 °F 55% 30.21 in 10.0 mi West 3.5 mph - N/A   Clear
1:35 AM 37.8 °F 35.3 °F 23.0 °F 55% 30.21 in 10.0 mi WNW 3.5 mph - N/A   Clear
1:55 AM 37.4 °F 34.9 °F 23.5 °F 57% 30.21 in 10.0 mi NW 3.5 mph - N/A   Clear
2:15 AM 36.7 °F 34.1 °F 23.9 °F 60% 30.21 in 10.0 mi WNW 3.5 mph - N/A   Clear
2:35 AM 36.5 °F 33.9 °F 23.9 °F 60% 30.21 in 10.0 mi WNW 3.5 mph - N/A   Clear
2:55 AM 36.3 °F 33.7 °F 24.3 °F 62% 30.20 in 10.0 mi WNW 3.5 mph - N/A   Clear
3:15 AM 36.0 °F 32.1 °F 24.4 °F 63% 30.20 in 10.0 mi WNW 4.6 mph - N/A   Clear
3:35 AM 35.6 °F 32.8 °F 24.8 °F 65% 30.20 in 10.0 mi WNW 3.5 mph - N/A   Clear
3:55 AM 35.4 °F - 24.8 °F 65% 30.20 in 10.0 mi Calm Calm - N/A   Clear
4:15 AM 35.1 °F - 24.8 °F 66% 30.19 in 10.0 mi Calm Calm - N/A   Clear
4:35 AM 34.7 °F - 25.0 °F 68% 30.19 in 10.0 mi Calm Calm - N/A   Clear
4:55 AM 34.7 °F 31.8 °F 25.3 °F 69% 30.19 in 10.0 mi West 3.5 mph - N/A   Clear
5:15 AM 34.0 °F 31.0 °F 25.5 °F 71% 30.19 in 10.0 mi WNW 3.5 mph - N/A   Clear
5:35 AM 34.3 °F - 25.5 °F 70% 30.20 in 10.0 mi Calm Calm - N/A   Clear
5:55 AM 33.8 °F - 25.7 °F 72% 30.19 in 10.0 mi Calm Calm - N/A   Clear
6:15 AM 33.4 °F - 25.7 °F 73% 30.20 in 10.0 mi Calm Calm - N/A   Clear
6:35 AM 33.3 °F - 25.7 °F 74% 30.20 in 10.0 mi Calm Calm - N/A   Clear
6:55 AM 32.7 °F - 25.5 °F 75% 30.21 in 10.0 mi Calm Calm - N/A   Clear
7:15 AM 32.9 °F - 25.7 °F 75% 30.21 in 10.0 mi Calm Calm - N/A   Clear
7:35 AM 33.8 °F 30.8 °F 25.7 °F 72% 30.22 in 10.0 mi West 3.5 mph - N/A   Clear
7:55 AM 35.1 °F 31.0 °F 26.2 °F 70% 30.22 in 10.0 mi WNW 4.6 mph - N/A   Clear
8:15 AM 36.9 °F 33.1 °F 27.5 °F 69% 30.23 in 10.0 mi WNW 4.6 mph - N/A   Clear
8:35 AM 39.4 °F 34.5 °F 28.2 °F 64% 30.23 in 10.0 mi WNW 6.9 mph - N/A   Clear
8:55 AM 41.2 °F 35.5 °F 28.6 °F 61% 30.23 in 10.0 mi WNW 9.2 mph - N/A   Clear
9:15 AM 42.8 °F 38.0 °F 28.6 °F 57% 30.23 in 10.0 mi NW 8.1 mph - N/A   Clear
9:35 AM 44.6 °F 39.7 °F 27.7 °F 52% 30.23 in 10.0 mi NW 9.2 mph 16.1 mph N/A   Clear
9:55 AM 45.5 °F 40.8 °F 26.4 °F 47% 30.23 in 10.0 mi NW 9.2 mph 17.3 mph N/A   Clear
10:15 AM 47.1 °F - 27.1 °F 46% 30.24 in 10.0 mi NW 9.2 mph 20.7 mph N/A   Clear
10:35 AM 47.3 °F - 25.9 °F 43% 30.23 in 10.0 mi NNW 13.8 mph 17.3 mph N/A   Clear
10:55 AM 48.0 °F - 25.2 °F 41% 30.23 in 10.0 mi NW 9.2 mph 16.1 mph N/A   Clear
11:15 AM 48.6 °F - 25.2 °F 40% 30.23 in 10.0 mi NNW 11.5 mph 18.4 mph N/A   Clear
11:35 AM 48.9 °F - 24.4 °F 38% 30.22 in 10.0 mi WNW 8.1 mph 17.3 mph N/A   Clear
11:55 AM 50.2 °F - 25.3 °F 38% 30.22 in 10.0 mi WNW 6.9 mph - N/A   Clear
12:15 PM 50.9 °F - 23.4 °F 34% 30.21 in 10.0 mi NNW 6.9 mph 17.3 mph N/A   Clear
12:35 PM 51.1 °F - 23.5 °F 34% 30.21 in 10.0 mi NW 9.2 mph - N/A   Clear
12:55 PM 52.0 °F - 24.4 °F 34% 30.20 in 10.0 mi WNW 5.8 mph 9.2 mph N/A   Clear
1:15 PM 52.0 °F - 23.7 °F 33% 30.19 in 10.0 mi NW 5.8 mph 16.1 mph N/A   Scattered Clouds
1:35 PM 53.6 °F - 25.2 °F 33% 30.19 in 10.0 mi NW 12.7 mph 17.3 mph N/A   Scattered Clouds
1:55 PM 53.6 °F - 24.4 °F 32% 30.18 in 10.0 mi West 9.2 mph - N/A   Scattered Clouds
2:15 PM 54.0 °F - 24.1 °F 31% 30.18 in 10.0 mi West 6.9 mph 18.4 mph N/A   Clear
2:35 PM 54.7 °F - 23.9 °F 30% 30.17 in 10.0 mi NW 13.8 mph 18.4 mph N/A   Clear
2:55 PM 53.6 °F - 23.4 °F 31% 30.17 in 10.0 mi NW 12.7 mph 18.4 mph N/A   Clear
3:15 PM 55.0 °F - 24.1 °F 30% 30.16 in 10.0 mi NW 10.4 mph 20.7 mph N/A   Scattered Clouds
3:35 PM 55.0 °F - 24.1 °F 30% 30.16 in 10.0 mi WNW 10.4 mph 18.4 mph N/A   Scattered Clouds
3:55 PM 55.6 °F - 24.8 °F 30% 30.15 in 10.0 mi NW 9.2 mph 18.4 mph N/A   Scattered Clouds
4:15 PM 56.5 °F - 25.2 °F 30% 30.14 in 10.0 mi NNW 10.4 mph 16.1 mph N/A   Scattered Clouds
4:35 PM 55.8 °F - 24.4 °F 30% 30.15 in 10.0 mi NW 10.4 mph - N/A   Scattered Clouds
4:55 PM 56.8 °F - 24.3 °F 28% 30.14 in 10.0 mi NW 9.2 mph 19.6 mph N/A   Scattered Clouds
5:15 PM 57.2 °F - 24.8 °F 29% 30.14 in 10.0 mi NNW 6.9 mph - N/A   Scattered Clouds
5:35 PM 56.1 °F - 23.9 °F 29% 30.15 in 10.0 mi NW 5.8 mph - N/A   Mostly Cloudy
5:55 PM 56.3 °F - 23.2 °F 28% 30.15 in 10.0 mi NNW 10.4 mph - N/A   Scattered Clouds
6:15 PM 56.1 °F - 23.2 °F 28% 30.16 in 10.0 mi NNW 11.5 mph - N/A   Mostly Cloudy
6:35 PM 55.4 °F - 23.4 °F 29% 30.16 in 10.0 mi NNW 9.2 mph - N/A   Scattered Clouds
6:55 PM 54.5 °F - 23.7 °F 30% 30.17 in 10.0 mi NW 6.9 mph - N/A   Scattered Clouds
7:15 PM 53.2 °F - 24.3 °F 32% 30.18 in 10.0 mi NW 6.9 mph - N/A   Scattered Clouds
7:35 PM 51.6 °F - 24.4 °F 35% 30.18 in 10.0 mi North 3.5 mph - N/A   Scattered Clouds
7:55 PM 50.4 °F - 24.8 °F 37% 30.19 in 10.0 mi NNW 5.8 mph - N/A   Clear
8:15 PM 49.5 °F - 25.0 °F 38% 30.20 in 10.0 mi North 3.5 mph - N/A   Clear
8:35 PM 48.7 °F - 25.5 °F 40% 30.21 in 10.0 mi North 3.5 mph - N/A   Clear
8:55 PM 47.7 °F - 26.1 °F 43% 30.22 in 10.0 mi Calm Calm - N/A   Clear
9:15 PM 47.3 °F - 26.1 °F 44% 30.23 in 10.0 mi Calm Calm - N/A   Clear
9:35 PM 45.3 °F - 27.0 °F 49% 30.24 in 10.0 mi Calm Calm - N/A   Clear
9:55 PM 43.9 °F - 26.6 °F 51% 30.24 in 10.0 mi Calm Calm - N/A   Clear
10:15 PM 42.8 °F 41.1 °F 27.3 °F 54% 30.25 in 10.0 mi NNW 3.5 mph - N/A   Clear
10:35 PM 45.5 °F 43.2 °F 26.4 °F 47% 30.26 in 10.0 mi NNW 4.6 mph - N/A   Clear
10:55 PM 45.7 °F 41.5 °F 26.2 °F 47% 30.26 in 10.0 mi NNW 8.1 mph - N/A   Clear
11:15 PM 45.5 °F 41.3 °F 26.1 °F 47% 30.27 in 10.0 mi NNW 8.1 mph - N/A   Clear
11:35 PM 45.5 °F 43.2 °F 26.1 °F 47% 30.28 in 10.0 mi North 4.6 mph - N/A   Clear
11:55 PM 44.1 °F 40.8 °F 26.4 °F 50% 30.29 in 10.0 mi North 5.8 mph - N/A   Clear